Time,TemperatureF,DewpointF,PressureIn,WindDirection,WindDirectionDegrees,WindSpeedMPH,WindSpeedGustMPH,Humidity,HourlyPrecipIn,Conditions,Clouds,dailyrainin,SoftwareType,DateUTC
2013-03-29 00:12:00,36.1,25.0,29.61,SSE,160,12.0,17.0,65,0.00,,,0.00,weatherlink.com 1.10,2013-03-29 00:12:00,
2013-03-29 00:27:00,36.0,26.0,29.61,SSE,148,12.0,20.0,66,0.00,,,0.00,weatherlink.com 1.10,2013-03-29 00:27:00,
2013-03-29 00:42:00,35.9,26.0,29.60,South,177,7.0,19.0,67,0.00,,,0.00,weatherlink.com 1.10,2013-03-29 00:42:00,
2013-03-29 00:57:00,35.9,25.0,29.60,SE,145,8.0,22.0,66,0.00,,,0.00,weatherlink.com 1.10,2013-03-29 00:57:00,
2013-03-29 01:12:00,35.8,26.0,29.59,SSE,160,13.0,20.0,67,0.00,,,0.00,weatherlink.com 1.10,2013-03-29 01:12:00,
2013-03-29 01:27:00,35.9,25.0,29.59,SSE,156,12.0,20.0,65,0.00,,,0.00,weatherlink.com 1.10,2013-03-29 01:27:00,
2013-03-29 01:42:00,35.8,25.0,29.59,SSE,159,12.0,19.0,65,0.00,,,0.00,weatherlink.com 1.10,2013-03-29 01:42:00,
2013-03-29 01:57:00,35.7,25.0,29.59,SE,140,13.0,21.0,64,0.00,,,0.00,weatherlink.com 1.10,2013-03-29 01:57:00,
2013-03-29 02:12:00,35.7,24.0,29.59,SSE,162,11.0,17.0,63,0.00,,,0.00,weatherlink.com 1.10,2013-03-29 02:12:00,
2013-03-29 02:27:00,35.6,24.0,29.59,SE,141,11.0,23.0,64,0.00,,,0.00,weatherlink.com 1.10,2013-03-29 02:27:00,
2013-03-29 02:42:00,35.6,24.0,29.59,SSE,150,11.0,18.0,64,0.00,,,0.00,weatherlink.com 1.10,2013-03-29 02:42:00,
2013-03-29 02:57:00,35.3,25.0,29.59,SSE,150,11.0,17.0,66,0.00,,,0.00,weatherlink.com 1.10,2013-03-29 02:57:00,
2013-03-29 03:12:00,35.2,24.0,29.58,SSE,159,8.0,20.0,64,0.00,,,0.00,weatherlink.com 1.10,2013-03-29 03:12:00,
2013-03-29 03:27:00,35.1,25.0,29.58,SE,138,9.0,19.0,66,0.00,,,0.00,weatherlink.com 1.10,2013-03-29 03:27:00,
2013-03-29 03:42:00,34.9,26.0,29.58,SSE,160,6.0,14.0,69,0.00,,,0.00,weatherlink.com 1.10,2013-03-29 03:42:00,
2013-03-29 03:57:00,34.9,25.0,29.58,SSE,159,11.0,23.0,67,0.00,,,0.00,weatherlink.com 1.10,2013-03-29 03:57:00,
2013-03-29 04:13:00,34.5,25.0,29.58,SSE,148,6.0,16.0,67,0.00,,,0.00,weatherlink.com 1.10,2013-03-29 04:13:00,
2013-03-29 04:28:00,34.5,25.0,29.59,SE,128,4.0,18.0,67,0.00,,,0.00,weatherlink.com 1.10,2013-03-29 04:28:00,
2013-03-29 04:43:00,34.5,25.0,29.58,SSE,150,13.0,19.0,67,0.00,,,0.00,weatherlink.com 1.10,2013-03-29 04:43:00,
2013-03-29 04:58:00,34.3,24.0,29.59,SSE,148,12.0,20.0,66,0.00,,,0.00,weatherlink.com 1.10,2013-03-29 04:58:00,
2013-03-29 05:13:00,33.5,24.0,29.59,SE,145,12.0,18.0,67,0.00,,,0.00,weatherlink.com 1.10,2013-03-29 05:13:00,
2013-03-29 05:28:00,-999.0,-99.9,29.59,North,-999,-999.0,-999.0,-999,0.00,,,0.00,weatherlink.com 1.10,2013-03-29 05:28:00,
2013-03-29 05:43:00,-999.0,-99.9,29.59,North,-999,-999.0,-999.0,-999,0.00,,,0.00,weatherlink.com 1.10,2013-03-29 05:43:00,
2013-03-29 05:58:00,-999.0,-99.9,29.59,North,-999,-999.0,-999.0,-999,0.00,,,0.00,weatherlink.com 1.10,2013-03-29 05:58:00,
2013-03-29 06:13:00,-999.0,-99.9,29.59,North,-999,-999.0,-999.0,-999,0.00,,,0.00,weatherlink.com 1.10,2013-03-29 06:13:00,
2013-03-29 06:28:00,-999.0,-99.9,29.59,North,-999,-999.0,-999.0,-999,0.00,,,0.00,weatherlink.com 1.10,2013-03-29 06:28:00,
2013-03-29 06:43:00,-999.0,-99.9,29.58,North,-999,-999.0,-999.0,-999,0.00,,,0.00,weatherlink.com 1.10,2013-03-29 06:43:00,
2013-03-29 06:58:00,-999.0,-99.9,29.58,North,-999,-999.0,-999.0,-999,0.00,,,0.00,weatherlink.com 1.10,2013-03-29 06:58:00,
2013-03-29 07:13:00,-999.0,-99.9,29.58,North,-999,-999.0,-999.0,-999,0.00,,,0.00,weatherlink.com 1.10,2013-03-29 07:13:00,
2013-03-29 07:28:00,33.7,24.0,29.58,SSE,156,6.0,15.0,67,0.00,,,0.00,weatherlink.com 1.10,2013-03-29 07:28:00,
2013-03-29 07:43:00,33.9,25.0,29.58,SSE,148,8.0,19.0,69,0.00,,,0.00,weatherlink.com 1.10,2013-03-29 07:43:00,
2013-03-29 07:58:00,34.0,24.0,29.58,SSE,150,10.0,17.0,68,0.00,,,0.00,weatherlink.com 1.10,2013-03-29 07:58:00,
2013-03-29 08:13:00,33.9,24.0,29.58,SE,139,9.0,15.0,66,0.00,,,0.00,weatherlink.com 1.10,2013-03-29 08:13:00,
2013-03-29 08:28:00,33.9,24.0,29.58,SSE,153,9.0,24.0,66,0.00,,,0.00,weatherlink.com 1.10,2013-03-29 08:28:00,
2013-03-29 08:43:00,33.9,24.0,29.58,SE,139,12.0,21.0,68,0.00,,,0.00,weatherlink.com 1.10,2013-03-29 08:43:00,
2013-03-29 08:58:00,34.0,25.0,29.58,SE,145,12.0,20.0,69,0.00,,,0.00,weatherlink.com 1.10,2013-03-29 08:58:00,
2013-03-29 09:13:00,34.2,24.0,29.57,SE,145,12.0,19.0,67,0.00,,,0.00,weatherlink.com 1.10,2013-03-29 09:13:00,
2013-03-29 09:28:00,34.2,24.0,29.57,SSE,156,9.0,19.0,66,0.00,,,0.00,weatherlink.com 1.10,2013-03-29 09:28:00,
2013-03-29 09:58:00,34.4,25.0,29.57,SSE,148,8.0,19.0,68,0.00,,,0.00,weatherlink.com 1.10,2013-03-29 09:58:00,
2013-03-29 10:13:00,34.9,24.0,29.57,SE,143,13.0,19.0,65,0.00,,,0.00,weatherlink.com 1.10,2013-03-29 10:13:00,
2013-03-29 10:28:00,34.6,24.0,29.57,SSE,163,8.0,18.0,65,0.00,,,0.00,weatherlink.com 1.10,2013-03-29 10:28:00,
2013-03-29 10:43:00,34.5,25.0,29.57,SSE,150,7.0,16.0,67,0.00,,,0.00,weatherlink.com 1.10,2013-03-29 10:43:00,
2013-03-29 11:14:00,35.4,25.0,29.57,SSE,150,12.0,18.0,65,0.00,,,0.00,weatherlink.com 1.10,2013-03-29 11:14:00,
2013-03-29 11:29:00,35.1,24.0,29.56,SE,145,7.0,23.0,64,0.00,,,0.00,weatherlink.com 1.10,2013-03-29 11:29:00,
2013-03-29 11:44:00,36.3,25.0,29.56,SE,141,9.0,17.0,63,0.00,,,0.00,weatherlink.com 1.10,2013-03-29 11:44:00,
2013-03-29 11:59:00,35.7,24.0,29.56,SSE,148,14.0,20.0,62,0.00,,,0.00,weatherlink.com 1.10,2013-03-29 11:59:00,
2013-03-29 12:14:00,35.6,24.0,29.56,SSE,153,7.0,19.0,64,0.00,,,0.00,weatherlink.com 1.10,2013-03-29 12:14:00,
2013-03-29 12:29:00,35.7,25.0,29.56,SSE,156,14.0,18.0,64,0.00,,,0.00,weatherlink.com 1.10,2013-03-29 12:29:00,
2013-03-29 12:44:00,35.9,25.0,29.55,SSE,159,8.0,19.0,64,0.00,,,0.00,weatherlink.com 1.10,2013-03-29 12:44:00,
2013-03-29 12:59:00,36.1,25.0,29.55,SSE,159,13.0,18.0,64,0.00,,,0.00,weatherlink.com 1.10,2013-03-29 12:59:00,
2013-03-29 13:14:00,36.0,25.0,29.55,SSE,160,10.0,20.0,64,0.00,,,0.00,weatherlink.com 1.10,2013-03-29 13:14:00,
2013-03-29 13:29:00,35.9,24.0,29.54,SE,142,9.0,18.0,63,0.00,,,0.00,weatherlink.com 1.10,2013-03-29 13:29:00,
2013-03-29 13:44:00,35.7,24.0,29.54,SE,125,16.0,18.0,63,0.00,,,0.00,weatherlink.com 1.10,2013-03-29 13:44:00,
2013-03-29 13:59:00,35.8,24.0,29.54,SSE,148,9.0,19.0,63,0.00,,,0.00,weatherlink.com 1.10,2013-03-29 13:59:00,
2013-03-29 14:14:00,36.6,25.0,29.53,SSE,156,8.0,16.0,64,0.00,,,0.00,weatherlink.com 1.10,2013-03-29 14:14:00,
2013-03-29 14:29:00,35.9,25.0,29.53,SE,134,11.0,19.0,64,0.00,,,0.00,weatherlink.com 1.10,2013-03-29 14:29:00,
2013-03-29 14:44:00,36.4,25.0,29.53,SE,131,7.0,16.0,63,0.00,,,0.00,weatherlink.com 1.10,2013-03-29 14:44:00,
2013-03-29 14:59:00,36.7,26.0,29.53,SE,138,14.0,16.0,65,0.00,,,0.00,weatherlink.com 1.10,2013-03-29 14:59:00,
2013-03-29 15:14:00,35.9,25.0,29.53,SE,142,12.0,17.0,65,0.00,,,0.00,weatherlink.com 1.10,2013-03-29 15:14:00,
2013-03-29 15:29:00,36.1,25.0,29.52,SE,129,10.0,16.0,65,0.00,,,0.00,weatherlink.com 1.10,2013-03-29 15:29:00,
2013-03-29 15:44:00,36.1,24.0,29.52,SE,142,14.0,19.0,63,0.00,,,0.00,weatherlink.com 1.10,2013-03-29 15:44:00,
2013-03-29 15:59:00,36.7,24.0,29.52,SSE,156,6.0,19.0,61,0.00,,,0.00,weatherlink.com 1.10,2013-03-29 15:59:00,
2013-03-29 16:14:00,36.9,25.0,29.52,SE,143,9.0,14.0,62,0.00,,,0.00,weatherlink.com 1.10,2013-03-29 16:14:00,
2013-03-29 16:29:00,36.7,25.0,29.52,SE,141,7.0,18.0,62,0.00,,,0.00,weatherlink.com 1.10,2013-03-29 16:29:00,
2013-03-29 16:44:00,36.7,25.0,29.52,ESE,122,9.0,16.0,64,0.00,,,0.00,weatherlink.com 1.10,2013-03-29 16:44:00,
2013-03-29 16:59:00,36.4,25.0,29.52,SE,132,17.0,21.0,63,0.00,,,0.00,weatherlink.com 1.10,2013-03-29 16:59:00,
2013-03-29 17:14:00,36.8,25.0,29.52,SE,131,8.0,14.0,63,0.00,,,0.00,weatherlink.com 1.10,2013-03-29 17:14:00,
2013-03-29 17:29:00,37.0,26.0,29.52,SSE,160,9.0,16.0,65,0.00,,,0.00,weatherlink.com 1.10,2013-03-29 17:29:00,
2013-03-29 17:44:00,37.3,27.0,29.52,SE,142,11.0,16.0,67,0.00,,,0.00,weatherlink.com 1.10,2013-03-29 17:44:00,
2013-03-29 17:59:00,37.4,28.0,29.52,SE,142,7.0,13.0,68,0.00,,,0.00,weatherlink.com 1.10,2013-03-29 17:59:00,
2013-03-29 18:14:00,37.4,28.0,29.53,SE,143,8.0,14.0,68,0.00,,,0.00,weatherlink.com 1.10,2013-03-29 18:14:00,
2013-03-29 18:29:00,37.4,27.0,29.53,SE,145,7.0,12.0,66,0.00,,,0.00,weatherlink.com 1.10,2013-03-29 18:29:00,
2013-03-29 18:44:00,37.3,27.0,29.53,SE,145,10.0,15.0,66,0.00,,,0.00,weatherlink.com 1.10,2013-03-29 18:44:00,
2013-03-29 18:59:00,37.3,27.0,29.53,SSE,153,5.0,13.0,66,0.00,,,0.00,weatherlink.com 1.10,2013-03-29 18:59:00,
2013-03-29 19:14:00,37.1,27.0,29.53,SE,125,10.0,11.0,68,0.00,,,0.00,weatherlink.com 1.10,2013-03-29 19:14:00,
2013-03-29 19:29:00,37.2,27.0,29.53,SE,138,4.0,13.0,66,0.00,,,0.00,weatherlink.com 1.10,2013-03-29 19:29:00,
2013-03-29 19:44:00,37.0,27.0,29.53,SE,145,4.0,9.0,67,0.00,,,0.00,weatherlink.com 1.10,2013-03-29 19:44:00,
2013-03-29 19:59:00,37.1,27.0,29.54,SE,139,8.0,10.0,66,0.00,,,0.00,weatherlink.com 1.10,2013-03-29 19:59:00,
2013-03-29 20:14:00,37.6,26.0,29.54,SSE,148,5.0,13.0,63,0.00,,,0.00,weatherlink.com 1.10,2013-03-29 20:14:00,
2013-03-29 20:29:00,38.0,25.0,29.54,SE,134,9.0,14.0,61,0.00,,,0.00,weatherlink.com 1.10,2013-03-29 20:29:00,
2013-03-29 20:44:00,38.2,26.0,29.54,South,169,8.0,14.0,61,0.00,,,0.00,weatherlink.com 1.10,2013-03-29 20:44:00,
2013-03-29 20:59:00,38.1,26.0,29.54,SSE,157,5.0,10.0,61,0.00,,,0.00,weatherlink.com 1.10,2013-03-29 20:59:00,
2013-03-29 21:14:00,38.2,25.0,29.54,SE,134,5.0,10.0,60,0.00,,,0.00,weatherlink.com 1.10,2013-03-29 21:14:00,
2013-03-29 21:30:00,38.1,26.0,29.54,SE,145,9.0,11.0,61,0.00,,,0.00,weatherlink.com 1.10,2013-03-29 21:30:00,
2013-03-29 21:45:00,38.3,25.0,29.54,SE,137,7.0,14.0,59,0.00,,,0.00,weatherlink.com 1.10,2013-03-29 21:45:00,
2013-03-29 22:00:00,38.2,26.0,29.54,SSE,159,5.0,15.0,62,0.00,,,0.00,weatherlink.com 1.10,2013-03-29 22:00:00,
2013-03-29 22:15:00,37.8,26.0,29.54,SSE,153,6.0,13.0,63,0.00,,,0.00,weatherlink.com 1.10,2013-03-29 22:15:00,
2013-03-29 22:30:00,37.6,26.0,29.54,SE,143,5.0,16.0,63,0.00,,,0.00,weatherlink.com 1.10,2013-03-29 22:30:00,
2013-03-29 22:45:00,37.5,25.0,29.55,SE,145,6.0,12.0,62,0.00,,,0.00,weatherlink.com 1.10,2013-03-29 22:45:00,
2013-03-29 23:00:00,37.3,25.0,29.55,SSE,165,4.0,12.0,61,0.00,,,0.00,weatherlink.com 1.10,2013-03-29 23:00:00,
2013-03-29 23:15:00,37.2,25.0,29.55,South,169,6.0,13.0,61,0.00,,,0.00,weatherlink.com 1.10,2013-03-29 23:15:00,
2013-03-29 23:30:00,37.2,25.0,29.55,SE,128,9.0,16.0,61,0.00,,,0.00,weatherlink.com 1.10,2013-03-29 23:30:00,
2013-03-29 23:45:00,37.2,25.0,29.55,SSE,162,7.0,12.0,61,0.00,,,0.00,weatherlink.com 1.10,2013-03-29 23:45:00,